sat.trackr.live / text

‹ back to catalog

STARLINK-5849

NORAD 55924 · 2023-037L

PAYLOAD ACTIVE UNKNOWN

§ Identity

Operator
Country
US
Launch date
2023-03-17
Launch site
AFWTR
Launch vehicle
Mass (kg)
RCS (m²)

Purposes: comms

External: N2YO · Heavens-Above · Gunter

§ Orbital elements

Epoch: 2026-09-20T22:00:03.000096Z

Period
95.67 min
Inclination
70.0026°
Eccentricity
0.0003703
Mean motion
15.05249984 rev/d
Perigee alt
548.2 km
Apogee alt
553.3 km
Semi-major
6,928.9 km
B*
1.4219e-3
RAAN
152.3113°
Arg perigee
244.7539°
Mean anomaly
31.3556°
Rev number
566

§ Raw data

STARLINK-58491 55924U 23037L   26263.91670139  .00020315  00000+0  14219-2 0  99942 55924  70.0026 152.3113 0003703 244.7539  31.3556 15.05249984  5662

JSON: /api/v1/satellites/55924 · /tle

For live sub-satellite position, see the globe view (requires WebGL).

§ Visibility from observer

Set your observer location to see the next 7 days of passes ≥ 10°. The values pass through the URL so the page stays shareable.

No JS? Fill the form by hand. The geolocation button needs JavaScript.